Weather Roundup
Issued by NWS

Home | Current Version | Previous Version | Text Only | Print | Product List | Glossary On
Versions: 1 2 3 4 5 6 7 8 9 10 11 12 13 14 15 16 17 18 19 20 21 22 23 24 25 26 27 28 29 30 31 32 33 34 35 36 37 38 39 40 41 42 43 44 45 46 47 48 49 50
000
NZUS93 KARX 042159
HRRWXR

CURRENT HOURLY OBSERVATIONS ACROSS
MUCH OF THE UPPER MISSISSIPPI VALLEY
NATIONAL WEATHER SERVICE LA CROSSE WI
500 PM CDT FRI SEP 04 2015


...SOUTHEAST MINNESOTA...


CITY           SKY/WX    TMP DP  RH WIND       PRES   REMARKS
ROCHESTER      SUNNY     85  72  65 SE12      29.95F HX  91
ROCHESTER/MAYO FAIR      87  69  55 SE9G18    29.95R HX  91
WINONA         MOSUNNY   90  72  55 SE9       29.94S HX  96
AUSTIN         SUNNY     86  72  62 S12       29.94S HX  92
ALBERT LEA     MOSUNNY   86  72  62 S10G16    29.93R HX  92
DODGE CENTER   SUNNY     84  72  65 CALM      29.95R
PRESTON        SUNNY     86  69  56 S8        29.96F HX  90
OWATONNA       MOSUNNY   88  72  58 SE12      29.92S HX  94
FARIBAULT      MOSUNNY   88  73  62 SE9       29.92R HX  96
$$

...ELSEWHERE IN MINNESOTA...


CITY           SKY/WX    TMP DP  RH WIND       PRES   REMARKS
MINNEAPOLIS    PTSUNNY   87  73  62 SE10      29.89S HX  94
INTNL FALLS    MOSUNNY   83  70  64 SE10      29.89R
DULUTH         MOSUNNY   76  66  71 E13       29.96S
RED WING       SUNNY     88  72  58 SE13      29.90F HX  94
REDWOOD FALLS  CLOUDY    83  73  72 S9        29.86S
MANKATO        PTSUNNY   86  73  66 S12       29.90S HX  93
WORTHINGTON    CLOUDY    75  70  83 SE7       29.92F
FAIRMONT       CLOUDY    84  68  58 S10       29.91R
$$

...SOUTHWEST WISCONSIN...


CITY           SKY/WX    TMP DP  RH WIND       PRES   REMARKS
LA CROSSE      MOSUNNY   88  69  53 SE9       29.95R HX  92
PRAIRIE DU CHI MOSUNNY   89  66  46 S5        29.95S HX  91
BOSCOBEL       SUNNY     90  68  48 VRB5      29.96S HX  94
LONE ROCK      NOT AVBL
PLATTEVILLE    PTSUNNY   85  71  62 S7        29.98F HX  91
FORT MC COY    MOSUNNY   86  69  57 E8        29.98S HX  90
VIROQUA        FAIR      86  69  57 SE8       30.00S HX  90
WIS DELLS      PTSUNNY   83  68  61 E8        30.00F
$$

...ELSEWHERE IN WISCONSIN...


CITY           SKY/WX    TMP DP  RH WIND       PRES   REMARKS
MILWAUKEE      PTSUNNY   71  65  81 E9        30.04R
MADISON        MOSUNNY   83  71  67 NE7       29.99F
GREEN BAY      SUNNY     76  67  73 NE9       30.03F
EAU CLAIRE     MOSUNNY   85  71  63 SE10      29.94F HX  90
BLACK RVR FLS  MOCLDY    84  69  59 E6        29.97S
MEDFORD        SUNNY     78  67  69 SE7       30.02S
WAUSAU         MOSUNNY   81  66  60 E8        30.01F
WIS RAPIDS     MOSUNNY   81  64  56 SE8       30.02F
MARSHFIELD     SUNNY     81  63  54 SE8       30.02S
RICE LAKE      MOSUNNY   82  71  68 E9        29.97F
$$

...NORTHEAST IOWA...


CITY           SKY/WX    TMP DP  RH WIND       PRES   REMARKS
DECORAH        MOSUNNY   84  70  61 S6        29.96S
MASON CITY     MOSUNNY   86  74  67 S9        29.95S HX  94
CHARLES CITY   MOSUNNY   86  75  70 S10       29.95F HX  95
OELWEIN        MOSUNNY   86  72  62 S7G14     29.97S HX  92
$$

...ELSEWHERE IN IOWA...


CITY           SKY/WX    TMP DP  RH WIND       PRES   REMARKS
DES MOINES     PTSUNNY   89  68  49 S13       29.93S HX  93
IOWA CITY      SUNNY     90  68  48 S7        29.96S HX  94
FORT DODGE     PTSUNNY   84  72  65 S7        29.93F
$$

...NORTHERN ILLINOIS...


CITY           SKY/WX    TMP DP  RH WIND       PRES   REMARKS
CHICAGO-OHARE  PTSUNNY   80  67  64 E8        30.01R
CHICAGO-MIDWAY PTSUNNY   79  67  66 E12       30.01R
MOLINE         MOSUNNY   92  67  43 S8        29.95F HX  95
ROCKFORD       MOSUNNY   90  70  51 NW6       30.00S HX  95
PEORIA         SUNNY     95  67  39 NW6       29.97S HX  99
$$

NOTE: "FAIR" INDICATES FEW OR NO CLOUDS BELOW 12,000 FEET WITH NO
SIGNIFICANT WEATHER AND/OR OBSTRUCTIONS TO VISIBILITY. WIND
SPEEDS ARE IN MILES-PER-HOUR.



USA.gov is the U.S. government's official web portal to all federal, state and local government web resources and services.